Voltar ao catálogo

FENGYUN 1C DEB

AtivoSSO
NORAD 31157·DEBRIS·🇨🇳 China

Lançado May 10, 1999 de Taiyuan Satellite Launch Center

Loading…

Próximas Passagens (próximas 24 horas)

TLE

AtualizadoSource: Space-Track

Época: Sep 12, 2026, 03:58 UTC

1 31157U 99025BHK 26255.16538631  .00000254  00000-0  12591-3 0  9997
2 31157  98.5055 233.9317 0098629 249.4333 109.6243 14.22862700  8602

Acompanhe FENGYUN 1C DEB em tempo real com AllMySat

Download on the App Store